STARLINK-32615, 62034

Orbit data source: Space-Track

STARLINK-32615, 62034 is a payload satellite owned by SpaceX/Seattle (US) in LEO that was launched on Thu, 21 Nov 2024 UTC via an FALCON 9 launch vehicle from the Air Force Eastern Test Range (AFETR). Payload-class satellites include a variety of spacecraft equipped with specific instruments for various scientific and technological missions. These include communications satellites like Starlink; space stations such as the ISS; scientific satellites like the Hubble; Earth observation satellites from companies like Planet Labs, Umbra, and HawkEye 360; GPS; miniature CubeSats for education and research; and military/defense satellites.

Loading next visibility...
Identifier
62034, 2024-216C
Orbit
LEO
Last TLE update
3 hours ago
Origin
Manufacturer
SpaceX/Seattle
Mission
Operational Commercial Communications
Bus & Motor
STARLINK V2M, Unknown motor
Mass
730 kg wet, ~700 kg dry
Launch date (UTC)
2024-11-21 (7 months ago)
Launch vehicle
FALCON 9
Launch site
Air Force Eastern Test Range (AFETR)
Object type
Payload
Rocket body
Debris
Shape & HBR
Box + 2 Pan, 29 m
Radar Cross Section
36.964 m², Large (>1 m²)

Expand to show TLE details & history

TLE from 3 hours ago
0 STARLINK-32615
1 62034U 24216C   25182.25002315 -.00021002  00000-0 -73652-3 0  9999
2 62034  42.9999 236.4552 0001530 261.7272 317.7067 15.28422083 35343
Epoch: 2025-07-01T06:00Z
TLE epoch observation values (Epoch: 2025-07-01T06:00:02Z)
Latitude
-25.83348°
Longitude
77.98382°
Altitude
486.202 km
Speed
7.623 km/s
True Right ascension
05h 50m 09s
True Declination
-25° 41' 37"
Sunlit
Object was in daylight at epoch
Visualization orbit readout
Latitude
-38.03834°
Longitude
102.68263°
Altitude
490.787 km
Speed
7.621 km/s
Apparent Right ascension
08h 08m 49s
Apparent Declination
-39° 14' 00"
Sunlit
Object is in daylight
Visualization observer readout
Local Sidereal Time
20:52:57
Azimuth
88.946° E
Elevation
-81.474°
Doppler factor
1
Orbital elements
Apogee altitude
483.524 km
Perigee altitude
481.425 km
Semi-major axis
6,860.612 km
Eccentricity
0.00015
Inclination
42.9999°
RAAN
236.4552°
Arg. of periapsis
261.7272°
True anomaly
Unknown
Mean anomaly
317.7067°
Eccentric anomaly
Unknown
Mean motion
3.81943 °/min
Orbital period
94.25 mins
BSTAR
-0.00073652
Loading maneuver chart data...
Loading SW <> Apogee altitude chart data...
Loading historical data...
Loading historical data...
Loading historical data...
Loading historical data...
Loading historical data...
Loading historical data...
Loading historical data...

STARLINK-32615 Visibility forecast

Observer location: undefined°, undefined°

Span
Click to sort rows by Start time (UTC) header in descending order
Start Az.
Max El. time (UTC)
Max El. Az.
Max El.
End time (UTC)
End Az.
6 mins2025-07-01 10:05:42.481Z285.95° WNW2025-07-01 10:08:42.481Z356.304° N37.939°2025-07-01 10:11:42.481Z75.197° E
5 mins2025-07-01 11:45:42.481Z288.229° WNW2025-07-01 11:47:42.481Z287.417° WNW44.733°2025-07-01 11:50:42.481Z109.197° ESE
4 mins2025-07-01 13:24:42.481Z251.99° W2025-07-01 13:26:42.481Z207.817° SW20.794°2025-07-01 13:28:42.481Z169.327° S
4 mins2025-07-02 06:20:42.481Z188.007° SSW2025-07-02 06:22:42.481Z140.776° SSE23.08°2025-07-02 06:24:42.481Z99.402° ESE
6 mins2025-07-02 07:58:42.481Z255.116° W2025-07-02 08:00:42.481Z268.444° W42.829°2025-07-02 08:04:42.481Z71.384° E
|